Flag for U.S.A. Weather past 2 weeks in Jackson, Wyoming, U.S.A.

Now
55 °F

Passing clouds.


Feels Like: 55 °F
Forecast: 31 / 56 °F
Wind: No wind

Location: Jackson Hole

Current Time: Apr 27, 2015 at 3:30:43 PM

Latest Report: Apr 27, 2015 at 2:51 PM


Visibility: 10 mi

Pressure: 30.25 "Hg

Humidity: 36%

Dew point: 28 °F

Location of JacksonLocation

Historic Weather in Jackson — Graph

°F

Jackson temperature yesterday

Maximum temperature yesterday: 46 °F (at 4:51 PM)
Minimum temperature yesterday: 34 °F (at 3:55 AM)
Average temperature yesterday: 38 °F

Past Weeks' High & Low Weather Summary

 TemperatureHumidityPressure
High64 °F (Apr 22, 4:51 PM)100% (Apr 15, 3:55 AM)30.29 "Hg (Apr 15, 3:55 AM)
Low25 °F (Apr 13, 6:15 AM)13% (Apr 17, 4:35 PM)29.65 "Hg (Apr 14, 4:51 PM)
Average41 °F60%30.00 "Hg
* Reported Apr 12 1:51 PM — Apr 27 1:51 PM, Jackson, Weather by CustomWeather, © 2015

Note: Actual official high and low records may vary slightly from our data, if they occured in-between our weather recording intervals... More about our weather records

Advertising

Jackson weather history for previous 24 hours

 ConditionsComfort  
Time TempWeatherWind HumidityBarometerVisibility
1:51 PM
Mon, Apr 27
52 °FPassing clouds.No wind32%30.25 "Hg10 mi
12:51 PM50 °FScattered clouds.No wind40%30.26 "Hg10 mi
11:51 AM46 °FSunny.3 mph46%30.28 "Hg10 mi
10:51 AM45 °FSunny.No wind53%30.29 "Hg10 mi
9:51 AM41 °FSunny.5 mph66%30.29 "Hg10 mi
8:51 AM39 °FSunny.9 mph70%30.28 "Hg10 mi
7:51 AM36 °FSunny.9 mph81%30.27 "Hg10 mi
6:51 AM32 °FClear.9 mph93%30.24 "Hg10 mi
6:35 AM32 °FPassing clouds.8 mph93%30.23 "Hg10 mi
6:15 AM34 °FMostly cloudy.12 mph87%30.23 "Hg10 mi
5:55 AM34 °FOvercast.13 mph87%30.22 "Hg10 mi
5:35 AM34 °FOvercast.8 mph87%30.22 "Hg10 mi
5:15 AM36 °FOvercast.7 mph81%30.22 "Hg10 mi
4:55 AM36 °FOvercast.10 mph81%30.21 "Hg10 mi
4:35 AM36 °FPassing clouds.8 mph81%30.20 "Hg10 mi
4:15 AM36 °FPassing clouds.7 mph81%30.19 "Hg10 mi
3:55 AM36 °FClear.6 mph87%30.19 "Hg10 mi
3:35 AM36 °FPassing clouds.7 mph93%30.19 "Hg10 mi
3:15 AM37 °FOvercast.5 mph87%30.18 "Hg10 mi
2:55 AM37 °FOvercast.7 mph87%30.18 "Hg10 mi
2:35 AM37 °FOvercast.7 mph87%30.18 "Hg10 mi
2:15 AM37 °FOvercast.5 mph93%30.18 "Hg10 mi
1:55 AM37 °FOvercast.5 mph93%30.18 "Hg10 mi
1:35 AM37 °FOvercast.3 mph93%30.18 "Hg10 mi
1:15 AM39 °FOvercast.No wind87%30.18 "Hg10 mi
12:55 AM39 °FOvercast.3 mph87%30.18 "Hg10 mi
12:35 AM39 °FOvercast.5 mph87%30.17 "Hg10 mi
12:15 AM39 °FMostly cloudy.6 mph87%30.17 "Hg10 mi
11:55 PM
Sun, Apr 26
39 °FOvercast.No wind87%30.17 "Hg10 mi
11:35 PM39 °FMostly cloudy.No wind87%30.17 "Hg10 mi
11:15 PM39 °FOvercast.No wind93%30.17 "Hg10 mi
10:55 PM39 °FOvercast.5 mph93%30.16 "Hg10 mi
10:35 PM39 °FOvercast.6 mph93%30.16 "Hg10 mi
10:15 PM39 °FOvercast.5 mph93%30.15 "Hg10 mi
9:35 PM39 °FPartly cloudy.3 mph87%30.13 "Hg10 mi
9:15 PM39 °FMostly cloudy.No wind87%30.12 "Hg10 mi
8:55 PM39 °FMostly cloudy.5 mph87%30.11 "Hg10 mi
7:51 PM41 °FSprinkles. Mostly cloudy.6 mph81%30.07 "Hg10 mi
6:51 PM41 °FRain showers. Overcast.6 mph81%30.04 "Hg10 mi
5:51 PM45 °FOvercast.7 mph61%30.01 "Hg10 mi
4:51 PM46 °FOvercast.7 mph62%29.98 "Hg10 mi
3:51 PM45 °FPartly sunny.No wind71%29.97 "Hg10 mi
Weather by CustomWeather, © 2015

See weather overviewHow to use our weather pages